Regional Weather Roundup
Issued by NWS Cleveland, OH

Home | Current Version | Previous Version | Graphics & Text | Print | Product List | Glossary On
Versions: 1 2 3 4 5 6 7 8 9 10 11 12 13 14 15 16 17 18 19 20 21 22 23 24 25 26 27 28 29 30 31 32 33 34 35 36 37 38 39 40 41 42 43 44 45 46 47 48 49 50
000
ASUS41 KCLE 041210
RWRCLE
OHIO REGIONAL WEATHER ROUNDUP
NATIONAL WEATHER SERVICE WILMINGTON, OH
800 AM EDT FRI SEP 04 2015

NOTE: "FAIR" INDICATES FEW OR NO CLOUDS BELOW 12,000 FEET WITH NO
SIGNIFICANT WEATHER AND/OR OBSTRUCTIONS TO VISIBILITY.

OHZ001>008-015>018-024>027-034-035-043-044-041300-
   NORTHWEST OHIO

CITY           SKY/WX    TMP DP  RH WIND       PRES   REMARKS
DEFIANCE       CLEAR     71  67  87 S3        29.99R FOG
FINDLAY        MOCLDY    71  66  84 S14       30.00R
TOLEDO EXPRESS CLEAR     67  66  97 S3        29.98R
TOLEDO EXEC    CLEAR     67  64  90 SE3       30.00R
LIMA           PTCLDY    70  66  87 SE8       30.02R
$$

OHZ009>014-019>023-028>033-038-089-041300-
   NORTHEAST OHIO

CITY           SKY/WX    TMP DP  RH WIND       PRES   REMARKS
CLE-HOPKINS    TSTM      68  65  90 S16       30.04R FOG
CLE-LAKEFRONT  CLOUDY    71  64  78 S5        30.02R
CUY CO. ARPT   PTSUNNY   70  66  88 S9        30.04R
LORAIN-ELYRIA  CLOUDY    67  64  90 S10       30.04R
ASHTABULA      MOSUNNY   67  66  97 CALM      30.07R FOG
AKRON-CANTON   CLOUDY    68  65  90 SW6       30.07R FOG
WOOSTER        LGT RAIN  65  64  97 SE8       30.07S
MANSFIELD      CLOUDY    67  65  93 SE12      30.06R
YOUNGSTOWN     LGT RAIN  67  66  97 CALM      30.06S FOG
$$

OHZ042-051>053-060>062-070>072-077>081-041300-
  SOUTHWEST OHIO

CITY           SKY/WX    TMP DP  RH WIND       PRES   REMARKS
CINC-COVINGTON PTCLDY    68  67  96 CALM      30.04R
CINC-LUNKEN    CLEAR     67  67 100 CALM      30.04R FOG
HAMILTON       CLEAR     68  67  96 CALM      30.04R FOG
DAYTON         MOCLDY    70  68  93 SE7       30.05R
WRIGHT-PAT AFB PTCLDY    70  68  92 S2        30.03R
DAYTON GENERAL PTCLDY    69  65  86 S5        30.04R
WILMINGTON     PTCLDY    68  66  93 CALM      30.05R FOG
$$

OHZ036-037-039>041-045>050-054>059-063>069-073>076-082>088-041300-
  CENTRAL AND SOUTHEAST OHIO

CITY           SKY/WX    TMP DP  RH WIND       PRES   REMARKS
COLUMBUS       CLOUDY    68  65  90 SE8       30.05R
OSU AIRPORT    PTSUNNY   69  66  90 S8        30.05R
BOLTON FIELD   SUNNY     68  66  94 SE6       30.06R
RICKENBACK AFB CLOUDY    68  65  90 SE6       30.04F
NEWARK         CLOUDY    69  66  90 S7        30.06R
MARION         CLOUDY    68  65  90 S10       30.05R
LANCASTER      CLOUDY    69  65  86 SE8       30.06F
ZANESVILLE     LGT RAIN  67  64  90 NE6       30.08R
NEW PHILLY     CLOUDY    67  66  97 CALM      30.07R
$$


USA.gov is the U.S. government's official web portal to all federal, state and local government web resources and services.